Weather History for KIPL - November, 2012

Change the Weather History Date:

Sunday, November 25, 2012

  Actual Average Record
Temperature  
Mean Temperature 68 °F -  
Max Temperature 84 °F 74 °F 88 °F (1950)
Min Temperature 51 °F 47 °F 34 °F (1952)
Cooling Degree Days 2    
Growing Degree Days 18 (Base 50)    
Moisture  
Dew Point 34 °F    
Average Humidity 34    
Maximum Humidity 53    
Minimum Humidity 14    
Precipitation  
Precipitation 0.00 in - - ()
Sea Level Pressure  
Sea Level Pressure 29.85 in    
Wind  
Wind Speed 3 mph (WSW)    
Max Wind Speed 7 mph    
Max Gust Speed -    
Visibility 10 miles    
Events      
Averages and records for this station are not official NWS values.
T = Trace of Precipitation, MM = Missing Value Source: NWS Daily Summary

Daily Weather History Graph

Daily Weather History Graph

Search for Another Location

Airport or City:

Trip Planner

Search our weather history database for the weather conditions in past years. The results will help you decide how hot, cold, wet, or windy it might be!

Date:

Astronomy

Nov. 25, 2012 Rise Set
Actual Time 6:22 AM PST 4:36 PM PST
Civil Twilight 5:55 AM PST 5:03 PM PST
Nautical Twilight 5:25 AM PST 5:33 PM PST
Astronomical Twilight 4:55 AM PST 6:03 PM PST
Moon 2:51 PM PST (11/25) 3:46 AM PST (11/25)
Length of Visible Light 11h 07m
Length of Day
10h 14m
Waxing Gibbous, 93% of the Moon is Illuminated
Nov 25
Waxing Gibbous
Nov 28
Full
Dec 6
Last Quarter
Dec 13
New
Dec 19
First Quarter

Hourly Weather History & Observations

Time (PST) Temp. Dew Point Humidity Pressure Visibility Wind Dir Wind Speed Gust Speed Precip Events Conditions
12:53 AM 55.9 °F 33.1 °F 42% 29.88 in 10.0 mi West 5.8 mph - N/A   Clear
1:53 AM 54.0 °F 30.9 °F 41% 29.87 in 10.0 mi WSW 3.5 mph - N/A   Clear
2:53 AM 54.0 °F 32.0 °F 43% 29.87 in 10.0 mi West 6.9 mph - N/A   Clear
3:53 AM 54.0 °F 30.0 °F 40% 29.86 in 10.0 mi Calm Calm - N/A   Clear
4:53 AM 53.1 °F 30.9 °F 43% 29.86 in 10.0 mi Calm Calm - N/A   Clear
5:53 AM 51.1 °F 34.0 °F 52% 29.87 in 10.0 mi SW 3.5 mph - N/A   Clear
6:53 AM 52.0 °F 33.1 °F 49% 29.89 in 10.0 mi SW 3.5 mph - N/A   Clear
7:53 AM 60.1 °F 34.0 °F 38% 29.91 in 10.0 mi Calm Calm - N/A   Clear
8:53 AM 68.0 °F 36.0 °F 31% 29.91 in 10.0 mi Calm Calm - N/A   Clear
9:53 AM 73.0 °F 33.1 °F 23% 29.91 in 10.0 mi Calm Calm - N/A   Clear
10:53 AM 77.0 °F 30.0 °F 18% 29.88 in 10.0 mi Calm Calm - N/A   Clear
11:53 AM 81.0 °F 30.0 °F 16% 29.85 in 10.0 mi South 5.8 mph - N/A   Clear
12:53 PM 82.0 °F 35.1 °F 18% 29.82 in 10.0 mi Variable 5.8 mph - N/A   Clear
1:53 PM 84.0 °F 30.0 °F 14% 29.80 in 10.0 mi ENE 6.9 mph - N/A   Clear
2:53 PM 84.0 °F 34.0 °F 17% 29.79 in 10.0 mi Variable 3.5 mph - N/A   Clear
3:53 PM 82.0 °F 36.0 °F 19% 29.78 in 10.0 mi East 4.6 mph - N/A   Clear
4:53 PM 77.0 °F 37.0 °F 24% 29.78 in 10.0 mi East 3.5 mph - N/A   Clear
5:53 PM 70.0 °F 37.0 °F 30% 29.80 in 10.0 mi North 3.5 mph - N/A   Clear
6:53 PM 68.0 °F 36.0 °F 31% 29.82 in 10.0 mi East 3.5 mph - N/A   Clear
7:53 PM 64.0 °F 36.0 °F 35% 29.83 in 10.0 mi Calm Calm - N/A   Clear
8:53 PM 61.0 °F 37.9 °F 42% 29.85 in 10.0 mi Calm Calm - N/A   Clear
9:53 PM 57.9 °F 41.0 °F 53% 29.86 in 10.0 mi West 3.5 mph - N/A   Clear
10:53 PM 55.9 °F 39.0 °F 53% 29.87 in 10.0 mi NW 3.5 mph - N/A   Clear
11:53 PM 55.9 °F 37.9 °F 51% 29.88 in 10.0 mi Calm Calm - N/A   Clear